Flag for American Samoa Weather past 2 weeks in Pago Pago, American Samoa

Now
78 °F

Passing clouds.


Feels Like: 80 °F
Forecast: 77 / 80 °F
Wind: 20 mph from Southeast

Location: Pago Pago / Int. Airp.

Current Time: Jul 28, 2015 at 4:24:13 AM

Latest Report: Jul 28, 2015 at 2:50 AM


Visibility: 10 mi

Pressure: 29.89 "Hg

Humidity: 79%

Dew point: 71 °F

Location of Pago PagoLocation

Historic Weather in Pago Pago — Graph

°F

Pago Pago temperature yesterday

Maximum temperature yesterday: 81 °F (at 11:50 AM)
Minimum temperature yesterday: 77 °F (at 3:56 AM)
Average temperature yesterday: 79 °F

Past Weeks' High & Low Weather Summary

 TemperatureHumidityPressure
High85 °F (Jul 19, 11:53 AM)94% (Jul 13, 5:50 PM)30.03 "Hg (Jul 13, 5:50 PM)
Low75 °F (Jul 22, 7:55 AM)60% (Jul 17, 12:51 PM)29.85 "Hg (Jul 13, 3:50 PM)
Average79 °F77%29.95 "Hg
* Reported Jul 13 2:56 AM — Jul 28 2:50 AM, Pago Pago, Weather by CustomWeather, © 2015

Note: Actual official high and low records may vary slightly from our data, if they occured in-between our weather recording intervals... More about our weather records

Advertising

Pago Pago weather history for previous 24 hours

 ConditionsComfort  
Time TempWeatherWind HumidityBarometerVisibility
2:50 AM
Tue, Jul 28
78 °FPassing clouds.20 mph79%29.89 "Hg10 mi
2:00 AM78 °FPassing clouds.17 mph80%29.90 "Hg10 mi
1:52 AM78 °FPassing clouds.17 mph80%29.90 "Hg10 mi
1:00 AM78 °FPartly cloudy.21 mph81%29.91 "Hg10 mi
12:55 AM79 °FPartly cloudy.21 mph79%29.91 "Hg10 mi
12:00 AM78 °FPartly cloudy.21 mph84%29.92 "Hg10 mi
11:50 PM
Mon, Jul 27
78 °FPartly cloudy.21 mph84%29.92 "Hg10 mi
11:00 PM78 °FPartly cloudy.22 mph82%29.93 "Hg10 mi
10:50 PM78 °FPartly cloudy.22 mph82%29.93 "Hg10 mi
10:00 PM79 °FPartly cloudy.21 mph81%29.94 "Hg10 mi
9:51 PM79 °FPartly cloudy.21 mph81%29.94 "Hg10 mi
8:52 PM78 °FPartly cloudy.23 mph81%29.93 "Hg10 mi
8:00 PM79 °FPartly cloudy.20 mph79%29.91 "Hg10 mi
7:51 PM79 °FPartly cloudy.20 mph79%29.91 "Hg10 mi
7:00 PM79 °FPartly cloudy.21 mph77%29.90 "Hg10 mi
6:51 PM79 °FPartly cloudy.21 mph77%29.90 "Hg10 mi
6:00 PM79 °FBroken clouds.20 mph76%29.88 "Hg12 mi
5:52 PM79 °FBroken clouds.20 mph76%29.88 "Hg12 mi
5:00 PM80 °FBroken clouds.22 mph79%29.87 "Hg12 mi
4:57 PM80 °FBroken clouds.22 mph79%29.87 "Hg12 mi
4:00 PM80 °FSprinkles. Broken clouds.21 mph77%29.85 "Hg12 mi
3:50 PM80 °FSprinkles. Broken clouds.21 mph77%29.85 "Hg12 mi
2:54 PM79 °FSprinkles. Partly sunny.23 mph82%29.86 "Hg12 mi
1:56 PM80 °FSprinkles. Broken clouds.23 mph77%29.88 "Hg12 mi
12:50 PM80 °FBroken clouds.23 mph75%29.90 "Hg12 mi
12:00 PM81 °FScattered clouds.24 mph75%29.92 "Hg12 mi
11:50 AM81 °FScattered clouds.24 mph75%29.92 "Hg12 mi
10:50 AM80 °FBroken clouds.24 mph78%29.94 "Hg12 mi
9:51 AM79 °FBroken clouds.23 mph79%29.96 "Hg12 mi
9:00 AM78 °FBroken clouds.24 mph82%29.95 "Hg12 mi
8:57 AM78 °FBroken clouds.24 mph82%29.95 "Hg12 mi
7:50 AM78 °FBroken clouds.24 mph83%29.93 "Hg12 mi
5:55 AM78 °FSprinkles. Mostly cloudy.24 mph84%29.90 "Hg8 mi
5:02 AM77 °FSprinkles. Light fog.22 mph83%29.90 "Hg8 mi
Weather by CustomWeather, © 2015

See weather overviewHow to use our weather pages